(109023) = 2001 QF8 = 2004 CO19

Discovered at Socorro on 2001-08-16 by LINEAR.

Orbit

Orbit type: Main Belt

Note: WebGL enabled browser required.

epoch2024-03-31.0
epoch JD2460400.5
perihelion date2021-06-12.57380
perihelion JD2459378.07380
argument of perihelion (°)298.81510
ascending node (°)316.89828
inclination (°)9.58340
eccentricity0.0956205
perihelion distance (AU)2.7096482
Tisserand w.r.t. Jupiter3.2
ΔV w.r.t. Earth (km/sec)10.7
semimajor axis (AU)2.9961406
mean anomaly (°)194.30883
mean daily motion (°/day)0.19004680
aphelion distance (AU)3.283
period (years)5.19
P-vector [x]-0.23841767
P-vector [y]-0.82289281
P-vector [z]-0.51575618
Q-vector [x]0.96447723
Q-vector [y]-0.26283413
Q-vector [z]-0.02649332
absolute magnitude14.94
phase slope0.15
uncertainty0
referenceMPEC 2024-E179
observations used716
oppositions20
arc length (days)23147
first opposition used1960
last opposition used2024
residual rms (arc-secs)0.68
perturbers coarse indicatorM-v
perturbers precise indicator003Ek
first observation date used1960-10-26.0
last observation date used2024-03-11.0
computer nameMPCLINUX
JD of orbit computation2456670.879897
perihelion JD uncertainty (days)2.3327E-04
argument of perihelion uncertainty (°)5.4207E-05
ascending node uncertainty (°)3.5363E-05
inclination uncertainty (°)6.9746E-06
eccentricity uncertainty 5.1604E-08
perihelion distance uncertainty (AU)1.5400E-07
Minimum Orbit Intersection Distances (in AU)
for orbit epoch: 2460400.5, reference: E2024-GB3
Mercury2.24501
Venus1.99296
Earth1.71048
Mars1.22935
Jupiter1.893
Saturn5.81939
Uranus15.4032
Neptune26.6589

Observations

724 total observations over interval: 1960 10 26.28264 – 2024 03 11.144143
These data are available for download (format description).

Date (UT) J2000 RA J2000 Dec Magn Location Ref
1960 10 26.28264 00 17 35.73 +14 37 45.2 20.5   675 – Palomar Mountain MPS 285337
1994 01 16.48852 10 23 44.28 +08 42 37.1   691 – Steward Observatory, Kitt Peak-Spacewatch MPS 106141
1994 01 16.50415 10 23 43.79 +08 42 37.3   691 – Steward Observatory, Kitt Peak-Spacewatch MPS 106141
1994 01 16.51942 10 23 43.34 +08 42 37.3 20.1 V 691 – Steward Observatory, Kitt Peak-Spacewatch MPS 106141
2001 08 16.27480 22 24 48.35 -06 08 40.9 19.1   704 – Lincoln Laboratory ETS, New Mexico MPS 33493
2001 08 16.28702 22 24 47.73 -06 08 42.6 19.1   704 – Lincoln Laboratory ETS, New Mexico MPS 33493
2001 08 16.29939 22 24 47.18 -06 08 44.1 19.7   704 – Lincoln Laboratory ETS, New Mexico MPS 33493
2001 08 16.32386 22 24 45.88 -06 08 45.6 19.7   704 – Lincoln Laboratory ETS, New Mexico MPS 33493
2001 08 18.28661 22 23 07.34 -06 11 36.7 18.6   704 – Lincoln Laboratory ETS, New Mexico MPS 33493
2001 08 18.29901 22 23 06.71 -06 11 36.4 18.5   704 – Lincoln Laboratory ETS, New Mexico MPS 33493
2001 08 18.31147 22 23 06.01 -06 11 38.8 18.3   704 – Lincoln Laboratory ETS, New Mexico MPS 33493
2001 08 18.32400 22 23 05.40 -06 11 40.6 18.6   704 – Lincoln Laboratory ETS, New Mexico MPS 33493
2001 08 23.27193 22 18 52.25 -06 19 47.4 18.3 R 699 – Lowell Observatory-LONEOS MPS 33493
2001 08 23.29531 22 18 51.02 -06 19 49.9   699 – Lowell Observatory-LONEOS MPS 33493
2001 08 23.31869 22 18 49.72 -06 19 52.8   699 – Lowell Observatory-LONEOS MPS 33493
2001 08 23.34212 22 18 48.48 -06 19 54.7   699 – Lowell Observatory-LONEOS MPS 33493
2001 08 27.23806 22 15 27.77 -06 27 00.8 18.5 R 699 – Lowell Observatory-LONEOS MPS 33493
2001 08 27.26153 22 15 26.55 -06 27 02.7   699 – Lowell Observatory-LONEOS MPS 33493
2001 08 27.28517 22 15 25.29 -06 27 04.8   699 – Lowell Observatory-LONEOS MPS 33493
2001 08 27.30862 22 15 24.05 -06 27 07.8   699 – Lowell Observatory-LONEOS MPS 33494
2001 09 08.18930 22 05 38.40 -06 49 51.6 19.1   704 – Lincoln Laboratory ETS, New Mexico MPS 34584
2001 09 08.20289 22 05 37.69 -06 49 54.0 19.3   704 – Lincoln Laboratory ETS, New Mexico MPS 34584
2001 09 08.21670 22 05 37.07 -06 49 57.0 19.5   704 – Lincoln Laboratory ETS, New Mexico MPS 34584
2001 09 08.23034 22 05 36.31 -06 49 56.6 19.2   704 – Lincoln Laboratory ETS, New Mexico MPS 34584
2001 09 08.24399 22 05 35.72 -06 49 59.8 19.5   704 – Lincoln Laboratory ETS, New Mexico MPS 34584
2001 09 09.20216 22 04 52.08 -06 51 45.7 18.3 R 699 – Lowell Observatory-LONEOS MPS 34584
2001 09 09.22255 22 04 51.12 -06 51 48.4   699 – Lowell Observatory-LONEOS MPS 34584
2001 09 09.24303 22 04 50.17 -06 51 50.4   699 – Lowell Observatory-LONEOS MPS 34584
2001 09 09.26340 22 04 49.16 -06 51 52.3   699 – Lowell Observatory-LONEOS MPS 34584
2001 09 12.26436 22 02 36.90 -06 57 18.1 18.9   704 – Lincoln Laboratory ETS, New Mexico MPS 34584
2001 09 12.27886 22 02 36.29 -06 57 20.1 19.2   704 – Lincoln Laboratory ETS, New Mexico MPS 34584
2001 09 12.29333 22 02 35.68 -06 57 21.2 19.2   704 – Lincoln Laboratory ETS, New Mexico MPS 34584
2001 09 12.30792 22 02 34.97 -06 57 22.2 19.2   704 – Lincoln Laboratory ETS, New Mexico MPS 34584
2001 09 12.32242 22 02 34.38 -06 57 24.0 19.5   704 – Lincoln Laboratory ETS, New Mexico MPS 34584
2001 09 19.251700 21 58 02.287 -07 08 37.44 19.71 V 645 – Apache Point-Sloan Digital Sky Survey MPS 79876
2001 09 19.255172 21 58 02.161 -07 08 37.74 20.51   645 – Apache Point-Sloan Digital Sky Survey MPS 79876
2001 09 20.17950 21 57 29.90 -07 09 57.0 19.6   704 – Lincoln Laboratory ETS, New Mexico MPS 35919
2001 09 20.22212 21 57 28.41 -07 09 59.6 19.9   704 – Lincoln Laboratory ETS, New Mexico MPS 35919
2001 09 20.23629 21 57 27.88 -07 10 01.1 20.0   704 – Lincoln Laboratory ETS, New Mexico MPS 35919
2001 09 22.18172 21 56 23.26 -07 12 37.3 19.0   704 – Lincoln Laboratory ETS, New Mexico MPS 35919
2001 09 22.19588 21 56 22.78 -07 12 38.1 19.6   704 – Lincoln Laboratory ETS, New Mexico MPS 35919
2001 09 22.21004 21 56 22.36 -07 12 38.3 19.2   704 – Lincoln Laboratory ETS, New Mexico MPS 35919
2001 09 22.22421 21 56 21.81 -07 12 41.2 19.9   704 – Lincoln Laboratory ETS, New Mexico MPS 35919
2001 09 22.23837 21 56 21.37 -07 12 41.4 19.6   704 – Lincoln Laboratory ETS, New Mexico MPS 35919
2002 11 13.38675 03 01 00.52 +31 24 10.5 19.4   644 – Palomar Mountain/NEAT MPS 100671
2002 11 13.40973 03 00 59.21 +31 24 05.0 19.2   644 – Palomar Mountain/NEAT MPS 100671
2002 11 13.43026 03 00 58.06 +31 24 00.3 19.2   644 – Palomar Mountain/NEAT MPS 100671
2003 12 21.40402 08 42 45.12 +23 12 13.3 20.0 V 691 – Steward Observatory, Kitt Peak-Spacewatch MPS 106255
2003 12 21.41741 08 42 44.71 +23 12 14.1 20.0 V 691 – Steward Observatory, Kitt Peak-Spacewatch MPS 106255
2003 12 21.43123 08 42 44.26 +23 12 14.8 19.9 V 691 – Steward Observatory, Kitt Peak-Spacewatch MPS 106255
2003 12 29.30549 08 38 05.57 +23 19 59.0 19.7 R 699 – Lowell Observatory-LONEOS MPS 100723
2003 12 29.32216 08 38 05.06 +23 20 00.6   699 – Lowell Observatory-LONEOS MPS 100723
2003 12 29.33876 08 38 04.31 +23 20 01.4   699 – Lowell Observatory-LONEOS MPS 100723
2003 12 29.35538 08 38 03.53 +23 20 02.0   699 – Lowell Observatory-LONEOS MPS 100723
2004 01 13.27476 08 26 03.41 +23 36 47.0 18.6 R 699 – Lowell Observatory-LONEOS MPS 100723
2004 01 13.29490 08 26 02.29 +23 36 49.0   699 – Lowell Observatory-LONEOS MPS 100723
2004 01 13.31490 08 26 01.20 +23 36 48.6   699 – Lowell Observatory-LONEOS MPS 100723
2004 01 13.33491 08 26 00.15 +23 36 50.6   699 – Lowell Observatory-LONEOS MPS 100723
2004 01 22.29083 08 17 34.56 +23 44 32.8 18.9   704 – Lincoln Laboratory ETS, New Mexico MPS 106255
2004 01 22.30372 08 17 33.79 +23 44 33.3 19.0   704 – Lincoln Laboratory ETS, New Mexico MPS 106255
2004 01 22.31648 08 17 32.94 +23 44 33.9 20.2   704 – Lincoln Laboratory ETS, New Mexico MPS 106255
2004 01 22.32949 08 17 32.27 +23 44 34.8 19.3   704 – Lincoln Laboratory ETS, New Mexico MPS 106255
2004 01 22.34247 08 17 31.51 +23 44 35.0 19.0   704 – Lincoln Laboratory ETS, New Mexico MPS 106255
2004 02 11.17992 07 59 33.46 +23 44 48.9 19.3 R 699 – Lowell Observatory-LONEOS MPS 98952
2004 02 11.20019 07 59 32.42 +23 44 48.9   699 – Lowell Observatory-LONEOS MPS 98952
2004 02 11.22047 07 59 31.43 +23 44 47.2   699 – Lowell Observatory-LONEOS MPS 98952
2004 02 11.24075 07 59 30.47 +23 44 47.4   699 – Lowell Observatory-LONEOS MPS 98952
2004 02 13.09780 07 58 04.21 +23 43 22.6 20.3 V 691 – Steward Observatory, Kitt Peak-Spacewatch MPS 98952
2004 02 13.12939 07 58 02.72 +23 43 21.4 20.1 V 691 – Steward Observatory, Kitt Peak-Spacewatch MPS 98952
2004 02 13.16080 07 58 01.26 +23 43 20.2 20.2 V 691 – Steward Observatory, Kitt Peak-Spacewatch MPS 98952
2004 02 15.21590 07 56 29.97 +23 41 31.3 19.6   704 – Lincoln Laboratory ETS, New Mexico MPS 98952
2004 02 15.23943 07 56 28.93 +23 41 29.0 20.1   704 – Lincoln Laboratory ETS, New Mexico MPS 98952
2004 02 15.25113 07 56 28.43 +23 41 28.7 20.0   704 – Lincoln Laboratory ETS, New Mexico MPS 98952
2004 02 15.26282 07 56 27.92 +23 41 27.8 20.2   704 – Lincoln Laboratory ETS, New Mexico MPS 98952
2004 02 23.21572 07 51 24.55 +23 31 38.4 19.5   704 – Lincoln Laboratory ETS, New Mexico MPS 100156
2004 02 23.22727 07 51 24.10 +23 31 37.8 20.0   704 – Lincoln Laboratory ETS, New Mexico MPS 100156
2004 02 23.23866 07 51 23.70 +23 31 37.7 19.9   704 – Lincoln Laboratory ETS, New Mexico MPS 100156
2004 02 23.25006 07 51 23.31 +23 31 36.8 20.1   704 – Lincoln Laboratory ETS, New Mexico MPS 100156
2004 02 23.26145 07 51 22.92 +23 31 35.6 20.2   704 – Lincoln Laboratory ETS, New Mexico MPS 100156
2005 03 12.39752 13 50 59.03 -24 16 25.1 18.8 R 699 – Lowell Observatory-LONEOS MPS 128979
2005 03 12.41054 13 50 58.74 -24 16 28.6   699 – Lowell Observatory-LONEOS MPS 128979
2005 03 12.42354 13 50 58.32 -24 16 30.7   699 – Lowell Observatory-LONEOS MPS 128979
2005 03 12.43655 13 50 58.04 -24 16 33.3   699 – Lowell Observatory-LONEOS MPS 128979
2005 04 10.65764 13 31 19.84 -24 31 59.4 18.2 R E12 – Siding Spring Survey MPS 131593
2005 04 10.66659 13 31 19.37 -24 31 58.0 18.3 R E12 – Siding Spring Survey MPS 131593
2005 04 10.67556 13 31 18.87 -24 31 56.9 18.6 R E12 – Siding Spring Survey MPS 131593
